星链-1409 (STARLINK-1409 )

导读 | 豆包AI

STARLINK-1409是美国太空探索技术公司(SpaceX)星链(Starlink)卫星星座的组成部分,于北京时间2020年6月4日发射入轨。星链项目旨在构建全球卫星互联网星座,为全球不同地区提供高速互联网接入服务,该卫星承担着项目部署中通信网络搭建的相关任务。

Basic Information
目录编号:
45704
目录名称:
STARLINK-1409
国际标识:
2020-035AZ
轨道中心:
EARTH
卫星名称:
星链-1409
卫星全名:
星链-1409 (STARLINK-1409 )
卫星状态:
已陨落 最后检测时间 2024-08-02
发射日期:
2020-06-04 UTC
国别 :
美国 (US)
星等 :
--
Orbit Information
数据来源 国际轨道数据
星历时间: 2024-08-03T01:44:00+0800
轨道信息已过期588天
半长轴: 6553.807km
偏心率: 0.0015551
轨道倾角: 53.022°
近地点辐角 224.827°
升交点赤经 93.064°
平近点角 302.117°
近地点: 165.48km
远地点: 185.864km
周期: 88.004分钟
每日圈数: 16.362976
Detailed Information
固有亮度:
5
最大亮度:
2.5
卫星平台:
Starlink V1.0
覆盖范围:
全球
运营商:
太空探索技术公司
运营商所在国:
美国
制造商(研发单位):
太空探索技术公司
制造商所在国:
美国
使用方式:
暂无
Satellite Introduction
星链(Starlink)计划是由太空探索技术公司(SpaceX)提出的一个巨型低轨卫星互联网星座项目,计划在2019年至2024年间在太空搭建由约1.2万颗卫星组成的“星链”网络,其中1584颗将部署在地球上空550千米处的近地轨道,并从2020年开始工作。该卫星仍在工作。